Tracking 20083 objects as of 12-Dec-2019
HD Live streaming from Space Station
objects crossing your sky now

SL-8 R/B

Track SL-8 R/B now!
10-day predictions


NORAD ID: 21131
Int'l Code: 1991-013B
Perigee: 923.9 km
Apogee: 1,016.4 km
Inclination: 82.8 °
Period: 104.3 minutes
Semi major axis: 7341 km
RCS: 7.7831 m2 (large)
Launch date: February 26, 1991
Source: Commonwealth of Independent States (former USSR) (CIS)
Launch site: PLESETSK MISSILE AND SPACE COMPLEX (PKMTR)

Note: This is a ROCKET BODY
aabbcc
Your satellite tracking list
Your tracking list is empty




NASA's NSSDC Master Catalog

Two Line Element Set (TLE):
1 21131U 91013B   19345.55978759  .00000051  00000-0  34569-4 0  9996
2 21131  82.8265 195.9555 0062974 301.8712  57.6328 13.80242843450016
Source of the keplerian elements: AFSPC